Home   Weather   Portsmouth   Past weeks

Flag for United Kingdom Past Weather in Portsmouth, England, United Kingdom — Yesterday and Last 2 Weeks

Now
52 °F

Fog.


Feels Like: 49 °F
Forecast: 52 / 55 °F
Wind: 7 mph from Southwest

Location: Southampton / Weather Centre

Current Time: Dec 9, 2016 at 7:46:56 am

Latest Report: Dec 9, 2016 at 6:50 am


Visibility: 3 mi

Pressure: 30.30 "Hg

Humidity: 94%

Dew Point: 50 °F

Location of PortsmouthLocation

Past Weather in Portsmouth — Graph

°F

Portsmouth Temperature Yesterday

Maximum temperature yesterday: 54 °F (at 10:20 am)
Minimum temperature yesterday: 50 °F (at 5:50 am)
Average temperature yesterday: 52 °F

High & Low Weather Summary for the Past Weeks

 TemperatureHumidityPressure
High54 °F (Dec 7, 11:20 am)100% (Nov 26, 5:50 am)30.60 "Hg (Nov 26, 5:50 am)
Low18 °F (Dec 1, 7:20 am)40% (Nov 28, 12:50 pm)30.09 "Hg (Nov 24, 6:20 am)
Average41 °F81%30.29 "Hg
* Reported Nov 24 6:20 am — Dec 9 6:20 am, Portsmouth, Weather by CustomWeather, © 2016

Note: Actual official high and low records may vary slightly from our data, if they occured in-between our weather recording intervals... More about our weather records

Advertising

Portsmouth Weather History for the Previous 24 Hours

Scroll right to see more
 ConditionsComfort  
Time TempWeatherWind HumidityBarometerVisibility
6:20 am
Fri, Dec 9
52 °FFog.10 mph94%30.30 "Hg3 mi
5:50 am52 °FFog.7 mph94%30.30 "Hg3 mi
10:20 pm
Thu, Dec 8
52 °FFog.7 mph100%30.33 "Hg1 mi
9:50 pm52 °FFog.7 mph94%30.33 "Hg1 mi
9:20 pm52 °FFog.8 mph94%30.33 "Hg1 mi
8:50 pm52 °FFog.8 mph94%30.33 "Hg1 mi
8:20 pm52 °FFog.5 mph100%30.33 "Hg1 mi
7:50 pm52 °FFog.5 mph100%30.33 "Hg1 mi
7:20 pm52 °FFog.6 mph100%30.33 "Hg1 mi
6:50 pm52 °FFog.6 mph94%30.30 "Hg1 mi
6:20 pm52 °FFog.6 mph100%30.30 "Hg1 mi
5:50 pm52 °FFog.3 mph100%30.30 "Hg1 mi
5:20 pm52 °FFog.5 mph94%30.30 "Hg3 mi
4:50 pm52 °FPassing clouds.3 mph100%30.30 "Hg4 mi
4:20 pm54 °FPassing clouds.3 mph94%30.30 "Hg4 mi
3:50 pm54 °FPartly sunny.9 mph94%30.27 "HgN/A
3:20 pm54 °FPartly sunny.10 mph88%30.27 "HgN/A
2:50 pm54 °FBroken clouds.7 mph88%30.27 "HgN/A
2:20 pm54 °FBroken clouds.14 mph88%30.27 "HgN/A
1:50 pm54 °FPartly sunny.10 mph88%30.27 "HgN/A
1:20 pm54 °FPartly sunny.12 mph88%30.27 "HgN/A
12:50 pm52 °FPartly sunny.9 mph94%30.27 "Hg4 mi
12:20 pm52 °FBroken clouds.10 mph94%30.27 "Hg3 mi
11:50 am52 °FBroken clouds.10 mph94%30.27 "Hg3 mi
11:20 am54 °FBroken clouds.12 mph88%30.27 "Hg3 mi
10:50 am54 °FBroken clouds.16 mph88%30.27 "Hg4 mi
10:20 am54 °FBroken clouds.12 mph88%30.27 "Hg4 mi
9:50 am52 °FBroken clouds.13 mph94%30.27 "Hg4 mi
9:20 am52 °FFog.13 mph94%30.27 "Hg2 mi
8:50 am52 °FBroken clouds.9 mph88%30.27 "Hg4 mi
8:20 am52 °FPartly sunny.8 mph88%30.27 "Hg5 mi
7:50 am52 °FPassing clouds.8 mph88%30.27 "Hg5 mi
7:20 am52 °FPassing clouds.8 mph82%30.27 "Hg5 mi
Weather by CustomWeather, © 2016

See weather overviewHow to use our weather pages